Regional Weather Roundup
Issued by NWS

Home | Current Version | Previous Version | Text Only | Print | Product List | Glossary Off
Versions: 1 2 3 4 5 6 7 8 9 10 11 12 13 14 15 16 17 18 19 20 21 22 23 24 25 26 27 28 29 30 31 32 33 34 35 36 37 38 39 40 41 42 43 44 45 46 47 48 49 50

259
ASUS43 KIND 271600
RWRIN

WEATHER ROUNDUP FOR INDIANA
NATIONAL WEATHER SERVICE INDIANAPOLIS IN
1200 PM EDT THU JUL 27 2017

NOTE: "FAIR" INDICATES FEW OR NO CLOUDS BELOW 12,000 FEET WITH NO
SIGNIFICANT WEATHER AND/OR OBSTRUCTIONS TO VISIBILITY.

* - STATION DOES NOT REPORT WEATHER SUCH AS PRECIPITATION OR FOG.

+ - STATION NOT QUALITY CONTROLLED BY THE NATIONAL WEATHER SERVICE.
    USE DATA WITH CAUTION...ESPECIALLY DEWPOINT AND RELATIVE
    HUMIDITY OBSERVATIONS.

INZ001>003-010>013-019-020-271700-
NORTHWEST INDIANA

CITY           SKY/WX    TMP DP  RH WIND       PRES   REMARKS
GARY /AIRPORT/ CLOUDY    75  72  88 N8        29.95R FOG
MICHIGAN CITY+ CLOUDY    75  70  83 N6        29.94S
MONTICELLO +   CLOUDY    77  73  87 W5        29.93S
RENSSELAER +   CLOUDY    75  70  83 W5        29.94S

$$

LMZ046-743>745-271700-
SOUTHERN LAKE MICHIGAN

STATION/POSITION TIME  TEMP    WIND        PRES    WAVE
                       AIR SEA DIR/SP/G            HT
                 (UTC) (F)     (DEG/KT/KT) (MB)    (FT)
BURNS HARBOR     1540   74     330/  6/  7 1014.2R
MICHIGAN CITY    1530   75     310/  4/  5   N/A
5NW MICH CITY    1550   74 75  360/  6/  6   N/A     0

$$

INZ004-005-014>016-021>024-271700-
NORTH CENTRAL INDIANA

CITY           SKY/WX    TMP DP  RH WIND       PRES   REMARKS
GOSHEN         LGT RAIN  74  70  87 NW3       29.94R FOG
SOUTH BEND     CLOUDY    76  71  85 CALM      29.94S
WARSAW +       LGT RAIN  72  72 100 W6        29.94R

$$

INZ006>009-017-018-025>027-271700-
NORTHEAST INDIANA

CITY           SKY/WX    TMP DP  RH WIND       PRES   REMARKS
FORT WAYNE     CLOUDY    75  71  87 SW8       29.94F
KENDALLVILLE + CLOUDY    76  71  84 W3        29.94S

$$

INZ028-029-035-036-043>045-051>053-271700-
WEST CENTRAL INDIANA

CITY           SKY/WX    TMP DP  RH WIND       PRES   REMARKS
LAFAYETTE      CLOUDY    75  73  93 W8        29.93S
TERRE HAUTE    CLOUDY    76  71  85 W9        29.96F

$$

INZ030>032-037>040-046>048-054>057-064-065-271700-
CENTRAL INDIANA

CITY           SKY/WX    TMP DP  RH WIND       PRES   REMARKS
COLUMBUS       PTSUNNY   77  70  78 W10       29.97S
FRANKFORT +    CLOUDY    77  74  88 NW6       29.96S
GREENWOOD *+   CLOUDY   N/A N/A N/A W9G16     29.96S
INDIANAPOLIS   CLOUDY    79  72  79 W12       29.94F
-EAGLE CREEK   CLOUDY    77  72  84 W7        29.94F
KOKOMO +       CLOUDY    76  71  85 SW6       29.95F
MT COMFORT *+  CLOUDY    75  72  88 W9        29.96S
SHELBYVILLE    CLOUDY    79  70  74 W12       29.95S

$$

INZ033-034-041-042-049-050-058-059-271700-
EAST CENTRAL INDIANA

CITY           SKY/WX    TMP DP  RH WIND       PRES   REMARKS
MUNCIE         CLOUDY    77  71  82 NW8       29.95S
RICHMOND +     LGT RAIN  72  72 100 SW5       29.97F

$$

INZ060-061-067>069-081>083-085>088-271700-
SOUTHWEST INDIANA

CITY           SKY/WX    TMP DP  RH WIND       PRES   REMARKS
EVANSVILLE     LGT RAIN  78  73  84 E3        29.98R
HUNTINGBURG *+ CLOUDY    77  74  90 CALM      29.98F

$$

INZ062-063-066-070>080-084-089>092-271700-
SOUTH CENTRAL AND SOUTHEAST INDIANA

CITY           SKY/WX    TMP DP  RH WIND       PRES   REMARKS
BLOOMINGTON    CLOUDY    78  71  79 W7        29.97S
MADISON *+     PTSUNNY   81  70  69 W3        30.00S
SEYMOUR +      CLOUDY    81  72  74 SW7       29.97S

$$





USA.gov is the U.S. government's official web portal to all federal, state and local government web resources and services.